Simultaneous Nadir Overpasses (SNOs) Predictions

Prediction of SNOs between AURA and NPP Satellite Orbit:

Table of predicted SNOs for the next 14.0 days since TLE Epoch: 8/23/2019
Index Date (AURA) Time (AURA) Lat,Lon (AURA) SZA (AURA ) Date (NPP) Time (NPP) Lat,Lon (NPP) SZA (NPP ) Distance(km) Time Diff (sec)
1 08/24/2019 02:51:57 79.23, 31.95 81.88 08/24/2019 02:51:19 79.23, 31.96 81.90 0.21 38
2 08/24/2019 03:41:18 -79.46,-158.86 98.46 08/24/2019 03:41:58 -79.45,-158.98 98.46 2.71 40
3 08/26/2019 19:08:22 79.34, 148.60 82.58 08/26/2019 19:08:10 79.34, 148.61 82.59 0.39 12
4 08/26/2019 19:57:44 -79.54, -42.43 97.70 08/26/2019 19:58:50 -79.53, -42.55 97.72 2.59 66
5 08/29/2019 10:35:31 -79.11, 95.36 96.21 08/29/2019 10:34:28 -79.11, 95.31 96.16 1.17 63
6 08/29/2019 11:24:49 79.42, -95.03 83.37 08/29/2019 11:25:03 79.42, -94.99 83.35 0.76 14
7 09/01/2019 02:51:57 -79.23,-148.04 95.47 09/01/2019 02:51:20 -79.23,-148.06 95.44 0.47 37
8 09/01/2019 03:41:15 79.53, 21.60 84.12 09/01/2019 03:41:55 79.53, 21.68 84.07 1.63 40
9 09/03/2019 19:08:23 -79.34, -31.45 94.70 09/03/2019 19:08:12 -79.34, -31.42 94.70 0.71 11
10 09/03/2019 19:57:42 79.59, 137.95 84.94 09/03/2019 19:58:48 79.61, 138.08 84.87 2.88 66
11 09/06/2019 10:35:30 79.08, -84.87 86.59 09/06/2019 10:34:28 79.07, -84.92 86.65 1.09 62




NCC Satellite Simultaneous Nadir Overpasses (SNOs) Prediction Service
